COSMOS 2251 DEB, 35996

Orbit data source: Space-Track

COSMOS 2251 DEB, 35996 is space debris in LEO originally from a launch on Wed, 16 Jun 1993 UTC launched from the Plesetsk Missile And Space Complex (PKMTR). The debris from Iridium 33, an American commercial communications satellite, has been tracked extensively since its accidental collision with the defunct Russian satellite Cosmos 2251 in 2009. This event, occurring at high speed in low Earth orbit (LEO), generated thousands of pieces of space debris, significantly increasing the risk of further collisions. The Iridium 33 debris cloud has impacted space traffic management and orbital debris mitigation strategies, making it a subject of ongoing study in space situational awareness.

Loading next visibility...
Identifier
35996, 1993-036AWN
Orbit
LEO
Country
Flag of CISCIS
Related business
Manufacturer
Unknown
Mission
Spacecraft
Bus & Motor
Unknown
Mass
Unknown
Launch date (UTC)
1993-06-16 (33 years ago)
Launch vehicle
Unknown
Launch site
Plesetsk Missile And Space Complex (PKMTR)
Object type
Payload
Rocket body
Debris
Shape & HBR
Unknown shape, 0.1 m
Radar Cross Section
Small (<0.1 m²)

Expand to show TLE details & history
Last TLE update: 1 month ago

TLE from 1 month ago
0 COSMOS 2251 DEB
1 35996U 93036AWN 26205.13021059  .00009130  00000-0  47079-3 0  9992
2 35996  74.0208   0.5782 0082518  31.9870 328.6294 15.13480947757015
Epoch: 2026-07-24T03:07Z
TLE epoch observation values (Epoch: 2026-07-24T03:07:30.194Z)
Latitude
0.00001°
Longitude
11.84113°
Altitude
479.777 km
Speed
7.653 km/s
True Right ascension
00h 02m 18s
True Declination
0° 00' 00"
Sunlit
Object was in full shadow at epoch
Visualization orbit readout
Latitude
Unknown
Longitude
Unknown
Altitude
Unknown
Speed
Unknown
Apparent Right ascension
Unknown
Apparent Declination
Unknown
Sunlit
N/A
Visualization observer readout
Local Sidereal Time
06:44:17
Azimuth
Unknown
Elevation
Unknown
Doppler factor
Unknown
Orbital elements
Apogee altitude
580.082 km
Perigee altitude
466.186 km
Semi-major axis
6,901.271 km
Eccentricity
0.00825
Inclination
74.0208°
RAAN
0.5782°
Arg. of periapsis
31.987°
True anomaly
328.13279°
Mean anomaly
328.6294°
Eccentric anomaly
328.38153°
Mean motion
3.78573 °/min
Orbital period
95.09 mins
BSTAR
0.00047079
Loading maneuver chart data...
Computing Atmospheric mass density...

Documentation

Showing up to 5 results
|